Weather Roundup
Issued by NWS Chicago, IL

Home | Current Version | Previous Version | Graphics & Text | Print | Product List | Glossary On
Versions: 1 2 3 4 5 6 7 8 9 10 11 12 13 14 15 16 17 18 19 20 21 22 23 24 25 26 27 28 29 30 31 32 33 34 35 36 37 38 39 40 41 42 43 44 45 46 47 48 49 50
000
NZUS59 KLOT 292321
HRRLOT

CHICAGO AREA WEATHER ROUNDUP
NATIONAL WEATHER SERVICE CHICAGO/ROMEOVILLE IL
600 PM CDT MON JUN 29 2015

NOTE: "FAIR" INDICATES FEW OR NO CLOUDS BELOW 12,000 FEET WITH NO
SIGNIFICANT WEATHER AND/OR OBSTRUCTIONS TO VISIBILITY.

* THESE STATIONS ARE NOT UNDER NWS QUALITY CONTROL. THEY ALSO MAY NOT
  REPORT WEATHER SUCH AS PRECIPITATION OR FOG.

ILZ005-006-012>014-019>023-300000-
NORTHEAST ILLINOIS

CITY           SKY/WX    TMP DP  RH WIND       PRES   REMARKS
OHARE          PTSUNNY   70  65  84 S5        29.78F
MIDWAY         LGT RAIN  72  66  81 S5        29.79S
AURORA         PTSUNNY   72  62  71 E5        29.80F
LANSING*       CLOUDY    71  62  73 SW6       29.80S
JOLIET*        CLOUDY    73  66  79 SW6       29.80F
WAUKEGAN       PTSUNNY   67  62  84 SE6       29.79F
DUPAGE AIRPORT PTSUNNY   68  64  87 CALM      29.79F
WHEELING       CLOUDY    71  63  75 S3        29.80F
KANKAKEE*      DRIZZLE   68  65  92 CALM      29.82S
MORRIS*        CLOUDY    68  65  89 CALM      29.77F
LEWIS AIRPORT* CLOUDY    69  62  78 CALM      29.80F
NORTHERLY IS     N/A     65  62  90 NE2         N/A
$$

WIZ051-052-058>065-066-070>072-300000-
SOUTHEAST WISCONSIN

CITY           SKY/WX    TMP DP  RH WIND       PRES   REMARKS
MILWAUKEE      MOSUNNY   70  61  73 SE10      29.80S
KENOSHA*       PTSUNNY   70  62  76 SE8       29.80S
RACINE*        PTSUNNY   69  61  75 SE8       29.82S
BURLINGTON     MOSUNNY   72  62  70 SW6       29.79F
WAUKESHA       MOSUNNY   72  59  64 SW6       29.81S
WEST BEND      PTSUNNY   68  61  77 E6        29.79F
$$

INZ001>003-010>013-019-020-300000-
NORTHWEST INDIANA

CITY           SKY/WX    TMP DP  RH WIND       PRES   REMARKS
GARY*          CLOUDY    72  68  88 CALM      29.80S
MICHIGAN CITY* NOT AVBL
RENSSELAER*    NOT AVBL
VALPARAISO     MOSUNNY   71  63  75 SE3       29.81S
$$

LMZ740>746-300000-
SOUTHERN LAKE MICHIGAN

STATION/POSITION TIME  SKY/WX   TEMP WIND        PRES    VSBY
                                AIR  DIR/SP/G
                 (UTC)          (F)  (DEG/KT/KT) (MB)    (MI)
HARRISON CRIB    2300            64   90/  6/  7   N/A
BURNHAM HARBOR   2300            65   70/  2/  5   N/A
CALUMET HARBOR   2300            66   40/  2/  4   N/A
BURNS HARBOR     2200            67   10/  6/  8 1009.8S
MICHIGAN CITY    2300            67  350/  6/  7   N/A
$$

ABBREVIATIONS USED IN REMARKS
   TC - TEMPERATURE IN CELSIUS
  WCI - WIND CHILL INDEX
   HX - HEAT INDEX
  VSB - VISIBILITY
$$



USA.gov is the U.S. government's official web portal to all federal, state and local government web resources and services.